(116) Sirona
ephemeris date magn radius delta ra dec elong phase
Today18 Apr 202413.42.934 AU3.931 AU02h07m+11°32'5.7°1.9°
Opposition19 Dec 202411.12.589 AU1.605 AU05h50m+25°46'177.6°0.9°
(116) Sirona - 2024-04-18
astro.vanbuitenen.nl


 
-1 year
-1 month
-1 day
Now
+1 day
+1 month
+1 year

The interactive orbit chart above shows the body's path through the solar system and its position at the given date. Green and blue lines are shown perpendicular to the ecliptic plane: Green if the path is above the ecliptic plane, blue if it is below. (Left-click and drag to rotate the view; Right-click and drag to move the view; Use scroll wheel to zoom in our out.)

The orbital elements of Sirona are:

            e (Eccentricity)                : 0.1406004
            a (Semimajor axis)              : 2.7675743
            i (Inclination)                 : 3.56403
            Ω (Longitude of ascending node) : 63.69029
            ω (Argument of perihelion)      : 94.18303
            M (Mean anomaly)                : 205.31511
            Epoch                           : 2023 Sep 13

            L (Longitude of perihelion)     : -22.11860
            B (Latitude of perihelion)      : 3.55452
            P (Orbital period in years)     : 4.60            
        

The light curve chart below shows the estimated development of the minor planet's magnitude.


The all-sky chart below shows the path of the minor planet over the same period as the light curve. The current position is marked yellow.





The following chart shows the path of the minor planet in the next few days. The field of view is optimized for (~10x50) binoculars and finderscopes. A more printer-friendly version of the same chart can be found below.




Ephemerides:
Date       Time       RA (2000)    DEC (2000)    delta   radius  elong  phase   PA    magn
2024-04-18 00:00 UT   02 07 20.0   +11 32 42     3.931    2.934    5.7    1.9    83   13.4 
2024-04-18 19:22 UT   02 08 31.7   +11 39 25     3.932    2.933    5.2    1.8    84   13.4 
2024-04-19 00:00 UT   02 08 48.9   +11 41 01     3.932    2.933    5.1    1.7    84   13.4 
2024-04-20 00:00 UT   02 10 17.8   +11 49 19     3.932    2.931    4.5    1.5    86   13.3 
2024-04-21 00:00 UT   02 11 47.0   +11 57 35     3.932    2.930    3.9    1.4    89   13.3 
2024-04-22 00:00 UT   02 13 16.3   +12 05 50     3.932    2.929    3.4    1.2    92   13.3 
2024-04-23 00:00 UT   02 14 45.8   +12 14 02     3.931    2.928    2.8    1.0    96   13.3 
2024-04-24 00:00 UT   02 16 15.4   +12 22 13     3.931    2.926    2.3    0.8   102   13.3 
2024-04-25 00:00 UT   02 17 45.2   +12 30 22     3.930    2.925    1.8    0.6   111   13.2 
2024-04-26 00:00 UT   02 19 15.1   +12 38 29     3.930    2.924    1.4    0.5   126   13.2 
2024-04-27 00:00 UT   02 20 45.2   +12 46 35     3.929    2.923    1.2    0.4   149   13.2 
2024-04-28 00:00 UT   02 22 15.5   +12 54 38     3.928    2.921    1.2    0.4   177   13.2 
2024-04-29 00:00 UT   02 23 45.9   +13 02 39     3.927    2.920    1.5    0.5   200   13.2 
2024-04-30 00:00 UT   02 25 16.4   +13 10 39     3.925    2.919    1.9    0.7   214   13.2 
2024-05-01 00:00 UT   02 26 47.1   +13 18 36     3.924    2.918    2.4    0.8   223   13.3 
2024-05-02 00:00 UT   02 28 18.0   +13 26 31     3.922    2.916    2.9    1.0   228   13.3 
2024-05-03 00:00 UT   02 29 48.9   +13 34 25     3.921    2.915    3.4    1.2   232   13.3 
2024-05-04 00:00 UT   02 31 20.1   +13 42 16     3.919    2.914    4.0    1.4   235   13.3 
2024-05-05 00:00 UT   02 32 51.3   +13 50 05     3.917    2.912    4.5    1.6   238   13.3 
2024-05-06 00:00 UT   02 34 22.7   +13 57 51     3.915    2.911    5.1    1.8   239   13.3 
2024-05-07 00:00 UT   02 35 54.3   +14 05 36     3.912    2.910    5.7    2.0   241   13.3 
2024-05-08 00:00 UT   02 37 25.9   +14 13 18     3.910    2.909    6.2    2.2   242   13.4 
2024-05-09 00:00 UT   02 38 57.7   +14 20 58     3.907    2.907    6.8    2.4   243   13.4 


    Terminology:
            
    delta:  distance between minor planet and earth in AU
    radius: distance between minor planet and sun in AU
    magn:   magnitude (brightness) estimate    
    ra:     right ascension in hours (24h = 360deg)
    dec:    declination in degrees
    elong:  elongation in degrees (angle sun-earth-minor planet)    
    phase:  phase angle in degrees (angle sun-minor planet-earth)        
    AU:     Astronomical Unit (mean distance between earth and sun: 149597870.7 km
    

Orbital elements provided by the MPC (Minor Planet Center).
Calculations by a modified version of AAPlus, a C# implementation of the AA+ project by PJ Naughter from the algorithms presented in the book "Astronomical Algorithms" by Jean Meeus.
NGC2000 dso catalog and star labels from VizieR as provided by the Strasbourg astronomical Data Center.
Tycho2 catalog from the ESO archive.